• In Hungary
  • List of Countries
  • For 7 days
  • Water Temperature
  • Satellite Maps
  • Weather Map
  • News
  • Weather Widgets
  • user-avatar
    Login

    Hourly Weather Stara Oleksandrivka

    Today, 15 December, Friday

    Time Temperature Precipitation Wind Pressure Humidity
    00:00 0°C° 0 mm 4 mps 732 mmHg 89%
    01:00 0°C° 0 mm 3 mps 733 mmHg 89%
    02:00 +1°C° 0 mm 1 mps 732 mmHg 92%
    03:00 -1°C° 0 mm 2 mps 732 mmHg 91%
    04:00 -1°C° 0 mm 2 mps 733 mmHg 91%
    05:00 -1°C° 0 mm 2 mps 733 mmHg 90%
    06:00 -1°C° 0 mm 2 mps 733 mmHg 89%
    07:00 -1°C° 0 mm 2 mps 733 mmHg 89%
    08:00 -1°C° 0 mm 2 mps 733 mmHg 88%
    09:00 0°C° 0 mm 3 mps 733 mmHg 86%
    10:00 +1°C° 0 mm 3 mps 733 mmHg 85%
    11:00 +1°C° 0 mm 4 mps 733 mmHg 83%
    12:00 +1°C° 0 mm 4 mps 733 mmHg 84%
    13:00 +1°C° 0 mm 5 mps 732 mmHg 84%
    14:00 +1°C° 0 mm 5 mps 732 mmHg 85%
    15:00 +1°C° 0 mm 5 mps 732 mmHg 86%
    16:00 +1°C° 0 mm 6 mps 731 mmHg 88%
    17:00 +1°C° 0 mm 6 mps 731 mmHg 90%
    18:00 +2°C° 0.1 mm 6 mps 731 mmHg 88%
    19:00 +2°C° 0.1 mm 6 mps 730 mmHg 85%
    20:00 +2°C° 0.1 mm 6 mps 730 mmHg 83%
    21:00 +3°C° 0 mm 6 mps 730 mmHg 81%
    22:00 +3°C° 0 mm 6 mps 731 mmHg 79%
    23:00 +4°C° 0 mm 6 mps 731 mmHg 77%

    Tomorrow, 16 December, Saturday

    Time Temperature Precipitation Wind Pressure Humidity
    00:00 +3°C° 0 mm 5 mps 731 mmHg 80%
    01:00 +4°C° 0 mm 4 mps 731 mmHg 83%
    02:00 +3°C° 0 mm 3 mps 731 mmHg 86%
    03:00 +3°C° 0.3 mm 3 mps 731 mmHg 88%
    04:00 +3°C° 0.3 mm 3 mps 730 mmHg 90%
    05:00 +3°C° 0.3 mm 2 mps 730 mmHg 92%
    06:00 +2°C° 1.2 mm 3 mps 729 mmHg 93%
    07:00 +1°C° 1.2 mm 4 mps 729 mmHg 93%
    08:00 +3°C° 1.2 mm 4 mps 728 mmHg 93%
    09:00 +3°C° 0.4 mm 4 mps 728 mmHg 92%
    10:00 +4°C° 0.4 mm 4 mps 727 mmHg 92%
    11:00 +4°C° 0.4 mm 4 mps 726 mmHg 91%
    12:00 +5°C° 0.1 mm 4 mps 726 mmHg 88%
    13:00 +6°C° 0.1 mm 4 mps 726 mmHg 86%
    14:00 +6°C° 0.1 mm 4 mps 726 mmHg 83%
    15:00 +6°C° 0 mm 4 mps 727 mmHg 85%
    16:00 +5°C° 0 mm 4 mps 727 mmHg 86%
    17:00 +4°C° 0 mm 4 mps 728 mmHg 88%
    18:00 +4°C° 0 mm 4 mps 729 mmHg 88%
    19:00 +3°C° 0 mm 4 mps 729 mmHg 88%
    20:00 +1°C° 0 mm 4 mps 730 mmHg 89%
    21:00 +1°C° 0 mm 4 mps 731 mmHg 88%
    22:00 +1°C° 0 mm 4 mps 732 mmHg 87%
    23:00 +1°C° 0 mm 3 mps 732 mmHg 86%

    Day after tomorrow, 17 December, Sunday

    Time Temperature Precipitation Wind Pressure Humidity
    00:00 +1°C° 0 mm 3 mps 733 mmHg 88%
    01:00 +1°C° 0 mm 3 mps 734 mmHg 89%
    02:00 0°C° 0 mm 3 mps 734 mmHg 90%
    03:00 0°C° 0 mm 3 mps 735 mmHg 89%
    04:00 0°C° 0 mm 3 mps 735 mmHg 89%
    05:00 -1°C° 0 mm 4 mps 735 mmHg 88%
    06:00 -1°C° 0 mm 4 mps 736 mmHg 87%
    07:00 -1°C° 0 mm 4 mps 736 mmHg 87%
    08:00 -1°C° 0 mm 4 mps 737 mmHg 86%
    09:00 -1°C° 0 mm 4 mps 737 mmHg 84%
    10:00 -1°C° 0 mm 4 mps 738 mmHg 81%
    11:00 -1°C° 0 mm 4 mps 738 mmHg 79%
    12:00 -1°C° 0 mm 4 mps 738 mmHg 76%
    13:00 -1°C° 0 mm 4 mps 738 mmHg 74%
    14:00 -1°C° 0 mm 4 mps 738 mmHg 72%
    15:00 0°C° 0 mm 3 mps 739 mmHg 73%
    16:00 0°C° 0 mm 3 mps 739 mmHg 75%
    17:00 0°C° 0 mm 3 mps 739 mmHg 76%
    18:00 +1°C° 0 mm 2 mps 740 mmHg 78%
    19:00 -1°C° 0 mm 2 mps 740 mmHg 80%
    20:00 -1°C° 0 mm 2 mps 740 mmHg 81%
    21:00 -1°C° 0 mm 2 mps 740 mmHg 82%
    22:00 -1°C° 0 mm 2 mps 740 mmHg 83%
    23:00 -2°C° 0 mm 3 mps 741 mmHg 83%

    18 December, Monday

    Time Temperature Precipitation Wind Pressure Humidity
    00:00 -2°C° 0 mm 3 mps 741 mmHg 83%
    01:00 -2°C° 0 mm 3 mps 741 mmHg 83%
    02:00 -4°C° 0 mm 3 mps 741 mmHg 83%
    03:00 -4°C° 0 mm 3 mps 741 mmHg 84%
    04:00 -3°C° 0 mm 2 mps 741 mmHg 86%
    05:00 -3°C° 0 mm 2 mps 741 mmHg 87%
    06:00 -3°C° 0 mm 2 mps 741 mmHg 88%
    07:00 -3°C° 0 mm 2 mps 742 mmHg 89%
    08:00 -3°C° 0 mm 2 mps 742 mmHg 90%
    09:00 -2°C° 0 mm 2 mps 742 mmHg 85%
    10:00 -2°C° 0 mm 3 mps 742 mmHg 80%
    11:00 -1°C° 0 mm 3 mps 742 mmHg 74%
    12:00 -1°C° 0 mm 3 mps 742 mmHg 73%
    13:00 -1°C° 0 mm 3 mps 742 mmHg 71%
    14:00 -2°C° 0 mm 4 mps 742 mmHg 69%
    15:00 -1°C° 0 mm 3 mps 742 mmHg 72%
    16:00 -2°C° 0 mm 3 mps 742 mmHg 74%
    17:00 -2°C° 0 mm 2 mps 743 mmHg 77%
    18:00 -2°C° 0 mm 2 mps 743 mmHg 77%
    19:00 -3°C° 0 mm 2 mps 743 mmHg 78%
    20:00 -3°C° 0 mm 2 mps 743 mmHg 79%
    21:00 -3°C° 0 mm 2 mps 743 mmHg 79%
    22:00 -3°C° 0 mm 2 mps 744 mmHg 80%
    23:00 -3°C° 0 mm 2 mps 744 mmHg 81%

    19 December, Tuesday

    Time Temperature Precipitation Wind Pressure Humidity
    00:00 -3°C° 0.1 mm 2 mps 744 mmHg 82%
    01:00 -3°C° 0.1 mm 2 mps 744 mmHg 84%
    02:00 -4°C° 0.1 mm 3 mps 744 mmHg 86%
    03:00 -4°C° 0.2 mm 3 mps 745 mmHg 86%
    04:00 -3°C° 0.2 mm 4 mps 745 mmHg 86%
    05:00 -3°C° 0.2 mm 4 mps 745 mmHg 87%
    06:00 -4°C° 0.1 mm 4 mps 745 mmHg 87%
    07:00 -4°C° 0.1 mm 4 mps 746 mmHg 87%
    08:00 -4°C° 0.1 mm 3 mps 746 mmHg 88%
    09:00 -4°C° 0.1 mm 4 mps 747 mmHg 86%
    10:00 -3°C° 0.1 mm 4 mps 747 mmHg 84%
    11:00 -3°C° 0.1 mm 4 mps 748 mmHg 82%
    12:00 -3°C° 0.1 mm 4 mps 748 mmHg 80%
    13:00 -3°C° 0.1 mm 4 mps 748 mmHg 78%
    14:00 -4°C° 0.1 mm 5 mps 748 mmHg 77%
    15:00 -3°C° 0 mm 4 mps 748 mmHg 79%
    16:00 -3°C° 0 mm 4 mps 749 mmHg 81%
    17:00 -4°C° 0 mm 3 mps 749 mmHg 83%
    18:00 -4°C° 0 mm 3 mps 749 mmHg 83%
    19:00 -4°C° 0 mm 3 mps 749 mmHg 84%
    20:00 -4°C° 0 mm 3 mps 749 mmHg 84%
    21:00 -4°C° 0 mm 3 mps 749 mmHg 84%
    22:00 -4°C° 0 mm 3 mps 750 mmHg 84%
    23:00 -4°C° 0 mm 3 mps 750 mmHg 84%

    20 December, Wednesday

    Time Temperature Precipitation Wind Pressure Humidity
    00:00 -4°C° 0.1 mm 3 mps 749 mmHg 85%
    01:00 -4°C° 0.1 mm 3 mps 749 mmHg 85%
    02:00 -5°C° 0.1 mm 3 mps 749 mmHg 85%
    03:00 -5°C° 0 mm 3 mps 749 mmHg 86%
    04:00 -5°C° 0 mm 3 mps 749 mmHg 87%
    05:00 -6°C° 0 mm 3 mps 748 mmHg 88%
    06:00 -6°C° 0 mm 3 mps 748 mmHg 89%
    07:00 -5°C° 0 mm 3 mps 748 mmHg 89%
    08:00 -5°C° 0 mm 3 mps 748 mmHg 89%
    09:00 -5°C° 0.1 mm 3 mps 748 mmHg 88%
    10:00 -4°C° 0.1 mm 3 mps 748 mmHg 86%
    11:00 -4°C° 0.1 mm 4 mps 748 mmHg 85%
    12:00 -3°C° 0.1 mm 4 mps 748 mmHg 84%
    13:00 -2°C° 0.1 mm 3 mps 748 mmHg 84%
    14:00 -2°C° 0.1 mm 3 mps 748 mmHg 83%
    15:00 -2°C° 0.1 mm 3 mps 748 mmHg 86%
    16:00 -2°C° 0.1 mm 3 mps 748 mmHg 88%
    17:00 -3°C° 0.1 mm 2 mps 748 mmHg 91%
    18:00 -3°C° 0.1 mm 2 mps 748 mmHg 91%
    19:00 -3°C° 0.1 mm 2 mps 748 mmHg 92%
    20:00 -3°C° 0.1 mm 2 mps 748 mmHg 93%
    21:00 -3°C° 0 mm 2 mps 748 mmHg 94%
    22:00 -3°C° 0 mm 2 mps 748 mmHg 95%
    23:00 -1°C° 0 mm 1 mps 749 mmHg 95%
    Show more